• Join FlightAware (Why Join?)
  • Login
  • US Flag 
02:40AM EDT


 

Airport Tracker/Info


-or-


 

Live Flight TrackerFlight Track Log ✈ N682RW ✈ 25-Jul-2013 ✈ KMDW - KDTW

Flight Track Log - Related Links

Times and Time Zones

All times are in EDT time to prevent confusion due to time zone crossing. See the N682RW flight status page for this flight to view local times or setup timezone preferences in your user account.

Time Position Orientation Groundspeed Altitude Reporting Facility
EDT Latitude Longitude Course Direction KTS MPH feet Rate Location/Type
07:43PM 41.8000 -87.7833 81° East 175 201 1,700  Level Chicago TRACON
07:44PM 41.8414 -87.7856 358° North 279 321 2,600 1,020 Climbing Chicago Center
07:45PM 41.8750 -87.7075 60° Northeast 280 322 3,400 600 Climbing Chicago Center
07:46PM 41.8322 -87.6244 125° Southeast 282 325 3,900 1,500 Climbing Chicago Center
07:47PM 41.8108 -87.5275 106° East 276 318 6,500 2,580 Climbing Chicago Center
07:48PM 41.8022 -87.4222 96° East 283 326 9,300 2,820 Climbing Chicago Center
07:49PM 41.9025 -86.7126 81° East  Level Estimated
07:49PM 41.7867 -87.2881 99° East 304 350 12,400  Level Chicago Center
07:50PM 41.7758 -87.1678 97° East 324 373 14,100 1,200 Climbing Chicago Center
07:51PM 41.7597 -87.0256 99° East 382 440 15,000 420 Climbing Chicago Center
07:52PM 41.7631 -86.8797 88° East 393 452 15,000 300 Level Chicago Center
07:53PM 41.7661 -86.7289 88° East 406 467 15,700 1,260 Climbing Chicago Center
07:54PM 41.7669 -86.5594 90° East 421 484 17,600 1,440 Climbing Chicago Center
07:55PM 41.7669 -86.3964 90° East 437 503 18,800 660 Climbing Chicago Center
07:56PM 41.7844 -86.2322 82° East 449 517 19,000 60 Climbing Chicago Center
07:57PM 41.8222 -86.0406 75° East 444 511 19,000  Level Chicago Center
07:58PM 41.8533 -85.8806 75° East 444 511 19,000  Level Chicago Center
07:59PM 41.8847 -85.7186 75° East 445 512 19,000  Level Chicago Center
08:00PM 41.9153 -85.5583 76° East 441 507 19,000  Level Chicago Center
08:01PM 41.9456 -85.3989 76° East 438 504 19,000  Level Chicago Center
08:02PM 41.9692 -85.2367 79° East 450 518 19,000  Level Chicago Center
08:03PM 41.9469 -85.0711 100° East 456 525 19,000  Level Chicago Center
08:05PM 41.9267 -84.9083 99° East 448 516 19,000  Level Chicago Center
08:06PM 41.9044 -84.7128 99° East 442 509 19,000  Level Chicago Center
08:07PM 41.8858 -84.5492 99° East 442 509 19,000 -660 Level Chicago Center
08:08PM 41.8667 -84.3875 99° East 440 506 17,700 -1,800 Descending Chicago Center
08:08PM 41.8539 -84.2939 100° East 426 490 16,200 -3,060 Descending Cleveland Center
08:09PM 41.8406 -84.1900 100° East 427 491 14,000 -2,520 Descending Cleveland Center
08:10PM 41.8306 -84.0417 95° East 415 478 12,000 -1,020 Descending Cleveland Center
08:11PM 41.8861 -83.9247 57° Northeast 365 420 12,000  Level Cleveland Center
08:12PM 41.9642 -83.8200 45° Northeast 365 420 12,000  Level Cleveland Center
08:13PM 42.0461 -83.7317 39° Northeast 365 420 12,000  Level Cleveland Center
08:14PM 42.1028 -83.6367 51° Northeast 345 397 12,100  Climbing Cleveland Center
08:15PM 42.1122 -83.5139 84° East 311 358 12,000 -60 Descending Cleveland Center
08:16PM 42.1211 -83.4106 83° East 311 358 12,000  Level Cleveland Center
08:16PM 42.1267 -83.3550 82° East 237 273 12,000  Level Cleveland Center
08:17PM 42.1342 -83.2992 80° East 280 322 12,000 -1,020 Level Cleveland Center
08:17PM 42.1597 -83.2781 31° Northeast 231 266 11,000 -1,860 Descending Cleveland Center
08:18PM 42.2153 -83.2186 38° Northeast 227 261 9,000 -1,620 Descending Cleveland Center
08:20PM 42.2664 -83.1703 35° Northeast 221 254 7,600 -1,140 Descending Cleveland Center
08:21PM 42.3156 -83.1217 36° Northeast 222 255 6,700 -840 Descending Cleveland Center
08:22PM 42.3664 -83.0817 30° Northeast 210 242 6,000 -840 Descending Cleveland Center
08:23PM 42.3922 -83.1331 304° West 182 209 5,100 -900 Descending Cleveland Center